When you browse on this site, cookies collect data to enhance your experience and personalize the content and advertising you see.
Visit our Privacy Policy to learn more. By continuing to use the site, you agree to this use of cookies and data.
  • In Hungary
  • List of Countries
  • For 7 days
  • Water Temperature
  • Satellite Maps
  • Weather Map
  • News
  • Weather Widgets
  • user-avatar
    Login

    Hourly Weather Karpos

    Today, 10 December, Monday

    Time Temperature Precipitation Wind Pressure Humidity
    00:00 +4°C° 0.1 mm 1 mps 705 mmHg 80%
    01:00 +5°C° 0 mm 1 mps 705 mmHg 80%
    02:00 +5°C° 0.8 mm 1 mps 704 mmHg 82%
    03:00 +5°C° 0.8 mm 1 mps 704 mmHg 84%
    04:00 +5°C° 0.8 mm 1 mps 704 mmHg 85%
    05:00 +4°C° 1.3 mm 1 mps 704 mmHg 86%
    06:00 +3°C° 1.3 mm 2 mps 704 mmHg 87%
    07:00 +1°C° 0 mm 4 mps 705 mmHg 85%
    08:00 +2°C° 0.4 mm 3 mps 705 mmHg 83%
    09:00 +3°C° 0.4 mm 3 mps 706 mmHg 81%
    10:00 +4°C° 0.4 mm 3 mps 706 mmHg 79%
    11:00 +4°C° 0.1 mm 3 mps 707 mmHg 77%
    12:00 +5°C° 0.1 mm 3 mps 707 mmHg 74%
    13:00 +5°C° 0 mm 4 mps 707 mmHg 75%
    14:00 +4°C° 0.1 mm 4 mps 707 mmHg 77%
    15:00 +4°C° 0.1 mm 3 mps 707 mmHg 80%
    16:00 +3°C° 0.1 mm 3 mps 707 mmHg 82%
    17:00 +2°C° 0 mm 3 mps 708 mmHg 83%
    18:00 +2°C° 0 mm 2 mps 708 mmHg 84%
    19:00 +2°C° 0 mm 2 mps 709 mmHg 85%
    20:00 +1°C° 0 mm 2 mps 709 mmHg 85%
    21:00 +1°C° 0 mm 2 mps 709 mmHg 85%
    22:00 +1°C° 0 mm 2 mps 710 mmHg 85%
    23:00 -1°C° 0 mm 2 mps 710 mmHg 85%

    Tomorrow, 11 December, Tuesday

    Time Temperature Precipitation Wind Pressure Humidity
    00:00 -1°C° 0 mm 2 mps 710 mmHg 85%
    01:00 -1°C° 0 mm 2 mps 710 mmHg 86%
    02:00 0°C° 0 mm 1 mps 710 mmHg 86%
    03:00 0°C° 0 mm 1 mps 710 mmHg 85%
    04:00 0°C° 0 mm 1 mps 710 mmHg 85%
    05:00 0°C° 0 mm 1 mps 710 mmHg 85%
    06:00 0°C° 0 mm 1 mps 711 mmHg 84%
    07:00 0°C° 0 mm 1 mps 711 mmHg 84%
    08:00 -1°C° 0 mm 2 mps 711 mmHg 78%
    09:00 +1°C° 0 mm 2 mps 711 mmHg 72%
    10:00 +2°C° 0 mm 2 mps 712 mmHg 66%
    11:00 +2°C° 0 mm 2 mps 712 mmHg 64%
    12:00 +2°C° 0 mm 2 mps 711 mmHg 61%
    13:00 +3°C° 0 mm 2 mps 711 mmHg 58%
    14:00 +2°C° 0 mm 2 mps 711 mmHg 63%
    15:00 +1°C° 0 mm 2 mps 712 mmHg 67%
    16:00 +1°C° 0 mm 1 mps 712 mmHg 71%
    17:00 0°C° 0 mm 1 mps 712 mmHg 73%
    18:00 0°C° 0 mm 1 mps 712 mmHg 75%
    19:00 -1°C° 0 mm 1 mps 712 mmHg 76%
    20:00 -1°C° 0 mm 1 mps 713 mmHg 76%
    21:00 -1°C° 0 mm 1 mps 713 mmHg 75%
    22:00 -1°C° 0 mm 1 mps 713 mmHg 74%
    23:00 -2°C° 0 mm 1 mps 713 mmHg 74%

    Day after tomorrow, 12 December, Wednesday

    Time Temperature Precipitation Wind Pressure Humidity
    00:00 -2°C° 0 mm 1 mps 713 mmHg 73%
    01:00 -2°C° 0 mm 1 mps 713 mmHg 73%
    02:00 -2°C° 0 mm 1 mps 713 mmHg 72%
    03:00 -2°C° 0 mm 1 mps 713 mmHg 72%
    04:00 -2°C° 0 mm 1 mps 713 mmHg 72%
    05:00 -2°C° 0 mm 1 mps 713 mmHg 72%
    06:00 -2°C° 0 mm 1 mps 714 mmHg 71%
    07:00 -2°C° 0 mm 1 mps 714 mmHg 71%
    08:00 -1°C° 0 mm 1 mps 714 mmHg 66%
    09:00 +1°C° 0 mm 1 mps 714 mmHg 61%
    10:00 +2°C° 0 mm 1 mps 715 mmHg 56%
    11:00 +3°C° 0 mm 1 mps 714 mmHg 54%
    12:00 +3°C° 0 mm 1 mps 714 mmHg 52%
    13:00 +4°C° 0 mm 1 mps 714 mmHg 50%
    14:00 +3°C° 0 mm 1 mps 714 mmHg 54%
    15:00 +2°C° 0 mm 1 mps 714 mmHg 58%
    16:00 0°C° 0 mm 1 mps 714 mmHg 62%
    17:00 0°C° 0 mm 1 mps 714 mmHg 63%
    18:00 0°C° 0 mm 1 mps 714 mmHg 64%
    19:00 -1°C° 0 mm 1 mps 714 mmHg 65%
    20:00 -1°C° 0 mm 1 mps 714 mmHg 64%
    21:00 -1°C° 0 mm 1 mps 714 mmHg 64%
    22:00 -1°C° 0 mm 1 mps 715 mmHg 63%
    23:00 -1°C° 0 mm 1 mps 714 mmHg 63%

    13 December, Thursday

    Time Temperature Precipitation Wind Pressure Humidity
    00:00 -2°C° 0 mm 1 mps 714 mmHg 63%
    01:00 -2°C° 0 mm 1 mps 714 mmHg 63%
    02:00 -2°C° 0 mm 1 mps 714 mmHg 63%
    03:00 -2°C° 0 mm 1 mps 713 mmHg 63%
    04:00 -2°C° 0 mm 1 mps 713 mmHg 64%
    05:00 -1°C° 0 mm 1 mps 713 mmHg 63%
    06:00 -1°C° 0 mm 1 mps 713 mmHg 63%
    07:00 -1°C° 0 mm 1 mps 713 mmHg 62%
    08:00 0°C° 0 mm 1 mps 713 mmHg 61%
    09:00 +1°C° 0 mm 1 mps 713 mmHg 59%
    10:00 +2°C° 0 mm 1 mps 713 mmHg 57%
    11:00 +2°C° 0.1 mm 1 mps 712 mmHg 59%
    12:00 +2°C° 0.1 mm 1 mps 712 mmHg 61%
    13:00 +1°C° 0.1 mm 2 mps 711 mmHg 63%
    14:00 +2°C° 0.1 mm 1 mps 711 mmHg 68%
    15:00 +1°C° 0.1 mm 1 mps 711 mmHg 73%
    16:00 +1°C° 0.1 mm 1 mps 711 mmHg 78%
    17:00 0°C° 0.4 mm 1 mps 711 mmHg 81%
    18:00 0°C° 0.4 mm 1 mps 711 mmHg 84%
    19:00 0°C° 0.4 mm 1 mps 711 mmHg 88%
    20:00 0°C° 0.1 mm 1 mps 711 mmHg 87%
    21:00 0°C° 0.1 mm 1 mps 711 mmHg 87%
    22:00 0°C° 0.1 mm 1 mps 712 mmHg 87%
    23:00 -1°C° 0 mm 1 mps 712 mmHg 87%

    14 December, Friday

    Time Temperature Precipitation Wind Pressure Humidity
    00:00 -1°C° 0 mm 1 mps 712 mmHg 86%
    01:00 -1°C° 0 mm 1 mps 712 mmHg 86%
    02:00 -2°C° 0 mm 1 mps 712 mmHg 85%
    03:00 -2°C° 0 mm 1 mps 713 mmHg 84%
    04:00 -2°C° 0 mm 1 mps 713 mmHg 83%
    05:00 -2°C° 0 mm 1 mps 713 mmHg 82%
    06:00 -2°C° 0 mm 1 mps 714 mmHg 80%
    07:00 -2°C° 0 mm 1 mps 714 mmHg 79%
    08:00 -1°C° 0 mm 1 mps 715 mmHg 74%
    09:00 +1°C° 0 mm 1 mps 715 mmHg 69%
    10:00 +3°C° 0 mm 1 mps 716 mmHg 63%
    11:00 +3°C° 0 mm 1 mps 715 mmHg 62%
    12:00 +4°C° 0 mm 1 mps 715 mmHg 61%
    13:00 +5°C° 0 mm 1 mps 715 mmHg 60%
    14:00 +3°C° 0 mm 1 mps 715 mmHg 64%
    15:00 +2°C° 0 mm 1 mps 715 mmHg 68%
    16:00 +1°C° 0 mm 1 mps 715 mmHg 72%
    17:00 +1°C° 0 mm 1 mps 716 mmHg 73%
    18:00 0°C° 0 mm 1 mps 716 mmHg 74%
    19:00 0°C° 0 mm 1 mps 717 mmHg 74%
    20:00 0°C° 0 mm 1 mps 717 mmHg 74%
    21:00 0°C° 0 mm 1 mps 717 mmHg 74%
    22:00 0°C° 0 mm 1 mps 717 mmHg 74%
    23:00 0°C° 0 mm 1 mps 717 mmHg 74%

    15 December, Saturday

    Time Temperature Precipitation Wind Pressure Humidity
    00:00 0°C° 0 mm 1 mps 717 mmHg 74%
    01:00 0°C° 0 mm 1 mps 717 mmHg 74%
    02:00 0°C° 0 mm 1 mps 717 mmHg 75%
    03:00 0°C° 0 mm 1 mps 717 mmHg 75%
    04:00 0°C° 0 mm 1 mps 717 mmHg 75%
    05:00 0°C° 0 mm 1 mps 717 mmHg 76%
    06:00 0°C° 0 mm 1 mps 717 mmHg 76%
    07:00 0°C° 0 mm 1 mps 718 mmHg 76%
    08:00 +1°C° 0 mm 1 mps 718 mmHg 74%
    09:00 +3°C° 0 mm 1 mps 718 mmHg 71%
    10:00 +4°C° 0 mm 1 mps 719 mmHg 68%
    11:00 +5°C° 0.1 mm 1 mps 718 mmHg 70%
    12:00 +5°C° 0.1 mm 1 mps 718 mmHg 72%
    13:00 +5°C° 0.1 mm 1 mps 718 mmHg 74%
    14:00 +5°C° 0.2 mm 1 mps 718 mmHg 78%
    15:00 +4°C° 0.2 mm 1 mps 717 mmHg 82%
    16:00 +3°C° 0.2 mm 1 mps 717 mmHg 86%
    17:00 +3°C° 0.2 mm 1 mps 718 mmHg 87%
    18:00 +3°C° 0.2 mm 1 mps 718 mmHg 88%
    19:00 +3°C° 0.2 mm 1 mps 718 mmHg 89%
    20:00 +3°C° 0.1 mm 1 mps 718 mmHg 89%
    21:00 +3°C° 0.1 mm 1 mps 717 mmHg 90%
    22:00 +3°C° 0.1 mm 1 mps 717 mmHg 90%
    23:00 +3°C° 0.1 mm 1 mps 717 mmHg 91%
    Show more